�������l�o���
Date,Time,MP-1(��Sv/h),MP-2(��Sv/h),MP-3(��Sv/h),MP-4(��Sv/h),MP-5(��Sv/h),MP-6(��Sv/h),MP-7(��Sv/h),MP-8(��Sv/h),����,����(m/s),���J
2023/10/21,00:00,0.526,0.799,0.494,0.999,0.718,0.322,0.572,0.534,�k��,4.3,��
2023/10/21,00:10,0.525,0.798,0.496,0.999,0.719,0.322,0.571,0.534,�k�k��,4.6,�L
2023/10/21,00:20,0.528,0.800,0.495,0.999,0.718,0.322,0.572,0.533,�k��,4.2,�L
2023/10/21,00:30,0.528,0.797,0.495,0.999,0.720,0.322,0.574,0.533,���k��,7.4,�L
2023/10/21,00:40,0.525,0.800,0.495,1.000,0.719,0.321,0.572,0.534,��,8.7,�L
2023/10/21,00:50,0.526,0.799,0.495,1.000,0.719,0.322,0.571,0.534,��,5.6,��
2023/10/21,01:00,0.526,0.798,0.494,0.998,0.719,0.320,0.573,0.533,�k��,5.7,��
2023/10/21,01:10,0.525,0.799,0.495,0.997,0.719,0.321,0.571,0.532,�k�k��,3.5,��
2023/10/21,01:20,0.525,0.799,0.494,1.000,0.720,0.320,0.572,0.533,�k�k��,4.4,��
2023/10/21,01:30,0.525,0.799,0.496,1.000,0.718,0.320,0.570,0.532,�k�k��,4.7,��
2023/10/21,01:40,0.524,0.799,0.494,0.999,0.719,0.321,0.572,0.533,�k�k��,4.8,��
2023/10/21,01:50,0.525,0.797,0.495,0.999,0.719,0.321,0.572,0.534,�k��,5.9,��
2023/10/21,02:00,0.526,0.799,0.493,0.997,0.719,0.320,0.571,0.533,�k��,5.6,��
2023/10/21,02:10,0.526,0.799,0.495,1.000,0.718,0.319,0.572,0.532,�k�k��,4.3,��
2023/10/21,02:20,0.526,0.799,0.494,0.998,0.718,0.321,0.571,0.533,�k�k��,5.4,��
2023/10/21,02:30,0.525,0.798,0.493,0.998,0.719,0.321,0.572,0.534,�k�k��,7.3,��
2023/10/21,02:40,0.526,0.797,0.494,1.000,0.718,0.322,0.572,0.533,�k�k��,8.4,��
2023/10/21,02:50,0.525,0.799,0.493,0.999,0.718,0.322,0.571,0.533,�k�k��,7.9,��
2023/10/21,03:00,0.525,0.799,0.495,0.999,0.719,0.322,0.571,0.533,�k�k��,7.2,��
2023/10/21,03:10,0.525,0.798,0.492,0.999,0.719,0.321,0.571,0.533,�k�k��,7.2,��
2023/10/21,03:20,0.525,0.797,0.494,0.998,0.719,0.322,0.571,0.534,�k�k��,6.9,��
2023/10/21,03:30,0.525,0.798,0.492,1.001,0.719,0.321,0.571,0.533,�k�k��,7.2,��
2023/10/21,03:40,0.526,0.797,0.492,0.998,0.718,0.320,0.571,0.532,�k��,8.3,��
2023/10/21,03:50,0.525,0.799,0.493,0.999,0.718,0.321,0.571,0.533,�k�k��,8.1,��
2023/10/21,04:00,0.525,0.797,0.493,0.998,0.718,0.322,0.569,0.532,�k�k��,6.4,��
2023/10/21,04:10,0.525,0.798,0.494,0.999,0.719,0.321,0.568,0.533,�k,4.9,��
2023/10/21,04:20,0.526,0.797,0.493,0.999,0.717,0.320,0.570,0.532,�k�k��,5.9,��
2023/10/21,04:30,0.524,0.799,0.493,0.999,0.718,0.321,0.568,0.533,�k�k��,5.8,��
2023/10/21,04:40,0.526,0.799,0.493,0.999,0.718,0.321,0.570,0.533,�k�k��,5.7,��
2023/10/21,04:50,0.525,0.799,0.494,0.997,0.718,0.320,0.569,0.532,�k,5.3,��
2023/10/21,05:00,0.526,0.798,0.494,0.999,0.717,0.321,0.569,0.532,�k�k��,6.9,��
2023/10/21,05:10,0.525,0.799,0.494,0.997,0.717,0.321,0.569,0.533,�k�k��,7.1,��
2023/10/21,05:20,0.526,0.798,0.491,1.002,0.718,0.321,0.569,0.532,�k�k��,6.6,��
2023/10/21,05:30,0.524,0.800,0.491,0.998,0.716,0.320,0.568,0.532,�k�k��,6.1,��
2023/10/21,05:40,0.525,0.797,0.494,0.997,0.717,0.320,0.570,0.532,�k,6.6,��
2023/10/21,05:50,0.525,0.799,0.492,0.998,0.717,0.320,0.570,0.534,�k�k��,7.3,��
2023/10/21,06:00,0.525,0.799,0.493,0.997,0.719,0.322,0.569,0.532,�k�k��,6.8,��
2023/10/21,06:10,0.524,0.799,0.492,1.000,0.718,0.320,0.570,0.531,�k�k��,7.2,��
2023/10/21,06:20,0.525,0.797,0.493,0.998,0.717,0.321,0.568,0.529,�k�k��,7.2,��
2023/10/21,06:30,0.527,0.797,0.492,1.000,0.720,0.321,0.568,0.531,�k�k��,8.3,��
2023/10/21,06:40,0.524,0.798,0.493,0.999,0.719,0.321,0.568,0.531,�k�k��,6.1,��
2023/10/21,06:50,0.526,0.798,0.491,0.997,0.717,0.319,0.567,0.531,�k�k��,4.2,��
2023/10/21,07:00,0.525,0.798,0.494,1.001,0.717,0.319,0.567,0.530,�k�k��,4.8,��
2023/10/21,07:10,0.525,0.798,0.492,0.999,0.719,0.320,0.570,0.532,�k�k��,5.1,��
2023/10/21,07:20,0.523,0.797,0.491,0.998,0.718,0.320,0.568,0.531,�k�k��,3.3,��
2023/10/21,07:30,0.525,0.797,0.494,0.998,0.719,0.320,0.568,0.531,�k�k��,3.7,��
2023/10/21,07:40,0.526,0.799,0.493,0.998,0.718,0.321,0.569,0.531,�k�k��,4.6,��
2023/10/21,07:50,0.525,0.802,0.494,0.998,0.716,0.319,0.568,0.532,�k�k��,5.0,��
2023/10/21,08:00,0.524,0.799,0.492,1.000,0.717,0.321,0.570,0.531,�k�k��,4.3,��
2023/10/21,08:10,0.524,0.797,0.493,1.000,0.719,0.320,0.568,0.533,�k�k��,3.8,��
2023/10/21,08:20,0.526,0.799,0.495,1.001,0.717,0.322,0.569,0.533,�k,2.6,��
2023/10/21,08:30,0.525,0.798,0.494,0.996,0.717,0.321,0.569,0.533,�k�k��,2.9,��
2023/10/21,08:40,0.524,0.798,0.492,1.000,0.719,0.319,0.568,0.531,�k�k��,2.8,��
2023/10/21,08:50,0.524,0.798,0.494,0.997,0.718,0.320,0.567,0.533,�k,2.0,��
2023/10/21,09:00,0.525,0.797,0.493,1.001,0.719,0.320,0.567,0.531,�k�k��,2.0,��
2023/10/21,09:10,0.523,0.800,0.493,1.000,0.720,0.320,0.569,0.532,�k,1.7,��
2023/10/21,09:20,0.525,0.799,0.493,0.999,0.718,0.320,0.568,0.531,�k,2.2,��
2023/10/21,09:30,0.523,0.800,0.491,0.999,0.719,0.321,0.568,0.531,�k,2.0,��
2023/10/21,09:40,0.527,0.800,0.494,1.000,0.717,0.321,0.570,0.531,�k,1.2,��
2023/10/21,09:50,0.525,0.798,0.492,0.999,0.718,0.320,0.569,0.530,�k�k��,2.6,��
2023/10/21,10:00,0.526,0.798,0.494,1.001,0.720,0.320,0.569,0.533,�k��,3.2,��
2023/10/21,10:10,0.525,0.797,0.494,0.998,0.718,0.321,0.570,0.530,�k��,3.5,��
2023/10/21,10:20,0.526,0.798,0.494,0.999,0.717,0.320,0.568,0.530,�k��,3.7,��
2023/10/21,10:30,0.524,0.798,0.493,1.000,0.718,0.320,0.569,0.531,�k��,3.7,��
2023/10/21,10:40,0.525,0.797,0.493,1.000,0.717,0.319,0.569,0.530,�k��,3.0,��
2023/10/21,10:50,0.523,0.797,0.492,1.000,0.716,0.319,0.569,0.530,���k��,2.6,��
2023/10/21,11:00,0.526,0.797,0.492,0.999,0.717,0.319,0.570,0.530,���k��,3.2,��
2023/10/21,11:10,0.526,0.798,0.493,1.002,0.719,0.321,0.571,0.530,���k��,3.0,��
2023/10/21,11:20,0.526,0.798,0.493,1.000,0.717,0.319,0.569,0.531,��,3.0,��
2023/10/21,11:30,0.525,0.799,0.491,0.999,0.718,0.321,0.570,0.530,���k��,2.5,��
2023/10/21,11:40,0.525,0.797,0.494,0.999,0.717,0.320,0.571,0.529,���k��,2.8,��
2023/10/21,11:50,0.524,0.799,0.493,0.999,0.718,0.319,0.570,0.529,�k��,3.4,��
2023/10/21,12:00,0.525,0.799,0.491,1.000,0.719,0.318,0.570,0.529,��,2.8,��
2023/10/21,12:10,0.524,0.799,0.490,1.002,0.718,0.319,0.571,0.532,���k��,3.4,��
2023/10/21,12:20,0.524,0.797,0.493,1.000,0.718,0.319,0.571,0.530,��,2.5,��
2023/10/21,12:30,0.526,0.800,0.491,1.002,0.718,0.322,0.571,0.532,���k��,2.9,��
2023/10/21,12:40,0.525,0.797,0.492,1.000,0.719,0.320,0.569,0.530,���k��,3.0,��
2023/10/21,12:50,0.524,0.801,0.492,1.001,0.718,0.321,0.571,0.530,�k�k��,2.9,��
2023/10/21,13:00,0.524,0.797,0.491,1.002,0.719,0.320,0.569,0.530,�k��,2.5,��
2023/10/21,13:10,0.523,0.799,0.493,1.001,0.720,0.321,0.572,0.531,�k��,2.2,��
2023/10/21,13:20,0.525,0.800,0.491,1.001,0.720,0.321,0.572,0.530,���k��,3.1,��
2023/10/21,13:30,0.524,0.800,0.492,1.002,0.720,0.320,0.570,0.531,���k��,6.2,��
2023/10/21,13:40,0.526,0.801,0.492,1.002,0.720,0.320,0.572,0.529,���k��,5.9,��
2023/10/21,13:50,0.525,0.801,0.491,1.002,0.720,0.321,0.571,0.530,���k��,7.5,��
2023/10/21,14:00,0.526,0.800,0.492,1.003,0.721,0.320,0.572,0.533,���k��,8.6,��
2023/10/21,14:10,0.526,0.801,0.493,1.002,0.721,0.323,0.572,0.531,���k��,7.6,��
2023/10/21,14:20,0.526,0.799,0.491,1.004,0.720,0.320,0.573,0.530,��,6.0,��
2023/10/21,14:30,0.524,0.798,0.492,1.006,0.722,0.320,0.572,0.531,��,5.5,��
2023/10/21,14:40,0.525,0.802,0.493,1.005,0.721,0.321,0.573,0.530,���k��,9.3,��
2023/10/21,14:50,0.524,0.800,0.491,1.002,0.721,0.322,0.571,0.530,���쐼,6.9,��
2023/10/21,15:00,0.527,0.800,0.493,1.002,0.719,0.319,0.573,0.530,���k��,6.3,��
2023/10/21,15:10,0.527,0.800,0.491,1.002,0.721,0.320,0.572,0.530,���k��,6.3,��
2023/10/21,15:20,0.526,0.801,0.492,1.003,0.718,0.319,0.571,0.530,�k��,6.2,��
2023/10/21,15:30,0.525,0.801,0.492,1.001,0.719,0.319,0.571,0.531,�k��,5.4,��
2023/10/21,15:40,0.524,0.799,0.492,0.999,0.720,0.320,0.572,0.532,�k��,5.0,��
2023/10/21,15:50,0.524,0.800,0.491,1.001,0.722,0.319,0.570,0.530,���k��,5.5,��
2023/10/21,16:00,0.527,0.799,0.493,1.002,0.720,0.320,0.571,0.532,���k��,6.4,��
2023/10/21,16:10,0.525,0.800,0.492,1.001,0.720,0.320,0.572,0.531,�k��,5.6,��
2023/10/21,16:20,0.525,0.800,0.492,1.000,0.720,0.321,0.571,0.532,���k��,6.1,��
2023/10/21,16:30,0.526,0.801,0.490,1.002,0.720,0.321,0.569,0.532,���k��,7.5,��
2023/10/21,16:40,0.525,0.802,0.491,1.004,0.721,0.321,0.571,0.533,�k��,6.8,��
2023/10/21,16:50,0.526,0.801,0.491,1.004,0.720,0.321,0.571,0.532,�k��,10.2,��
2023/10/21,17:00,0.525,0.801,0.491,1.004,0.721,0.321,0.571,0.532,�k��,8.5,��
2023/10/21,17:10,0.524,0.799,0.491,1.006,0.721,0.323,0.571,0.534,���k��,8.9,��
2023/10/21,17:20,0.524,0.802,0.491,1.004,0.720,0.321,0.570,0.533,�k��,8.8,��
2023/10/21,17:30,0.526,0.802,0.493,1.003,0.720,0.322,0.569,0.534,�k��,9.4,��
2023/10/21,17:40,0.526,0.803,0.494,1.003,0.721,0.323,0.570,0.534,�k��,8.0,��
2023/10/21,17:50,0.527,0.804,0.493,1.006,0.721,0.320,0.569,0.535,�k��,7.2,��
2023/10/21,18:00,0.528,0.803,0.494,1.005,0.722,0.320,0.569,0.534,�k�k��,8.0,��
2023/10/21,18:10,0.527,0.804,0.493,1.006,0.722,0.320,0.571,0.535,�k�k��,7.7,��
2023/10/21,18:20,0.528,0.803,0.493,1.005,0.723,0.321,0.568,0.534,�k�k��,6.4,��
2023/10/21,18:30,0.527,0.804,0.493,1.005,0.721,0.320,0.570,0.534,�k��,5.9,��
2023/10/21,18:40,0.526,0.804,0.492,1.004,0.723,0.320,0.570,0.534,�k�k��,7.8,��
2023/10/21,18:50,0.527,0.803,0.492,1.005,0.724,0.321,0.571,0.533,�k�k��,5.6,��
2023/10/21,19:00,0.528,0.803,0.493,1.002,0.723,0.320,0.570,0.532,�k�k��,4.8,��
2023/10/21,19:10,0.526,0.803,0.493,1.007,0.722,0.321,0.570,0.533,�k�k��,4.8,��
2023/10/21,19:20,0.528,0.801,0.493,1.004,0.723,0.319,0.571,0.532,�k,3.1,��
2023/10/21,19:30,0.527,0.803,0.493,1.006,0.723,0.319,0.570,0.534,�k�k��,3.6,��
2023/10/21,19:40,0.526,0.803,0.494,1.004,0.722,0.320,0.569,0.533,�k�k��,3.7,��
2023/10/21,19:50,0.527,0.803,0.494,1.007,0.724,0.319,0.570,0.534,�k��,4.4,��
2023/10/21,20:00,0.527,0.802,0.492,1.006,0.722,0.320,0.569,0.533,�k�k��,4.8,��
2023/10/21,20:10,0.527,0.804,0.494,1.005,0.721,0.320,0.571,0.533,�k��,3.6,��
2023/10/21,20:20,0.527,0.803,0.494,1.004,0.722,0.322,0.569,0.533,�k��,3.5,��
2023/10/21,20:30,0.526,0.802,0.493,1.003,0.722,0.318,0.570,0.533,�k��,4.0,��
2023/10/21,20:40,0.526,0.802,0.493,1.003,0.721,0.319,0.571,0.531,�k��,4.9,��
2023/10/21,20:50,0.526,0.803,0.493,1.004,0.721,0.321,0.572,0.533,�k��,5.4,��
2023/10/21,21:00,0.526,0.802,0.492,1.003,0.722,0.319,0.571,0.531,�k��,6.3,��
2023/10/21,21:10,0.528,0.799,0.493,1.003,0.723,0.319,0.572,0.532,�k��,6.6,��
2023/10/21,21:20,0.527,0.800,0.491,1.003,0.722,0.320,0.574,0.532,�k�k��,5.9,��
2023/10/21,21:30,0.526,0.801,0.493,1.004,0.722,0.320,0.571,0.533,�k��,5.7,��
2023/10/21,21:40,0.526,0.801,0.492,1.005,0.721,0.320,0.571,0.532,�k��,6.2,��
2023/10/21,21:50,0.526,0.802,0.493,1.004,0.722,0.319,0.571,0.532,�k��,6.9,��
2023/10/21,22:00,0.526,0.801,0.493,1.005,0.722,0.319,0.573,0.531,���k��,5.8,��
2023/10/21,22:10,0.527,0.801,0.492,1.004,0.724,0.320,0.570,0.530,���k��,7.6,��
2023/10/21,22:20,0.527,0.801,0.493,1.005,0.724,0.319,0.571,0.532,�k��,7.3,��
2023/10/21,22:30,0.524,0.801,0.492,1.004,0.722,0.320,0.572,0.532,�k��,8.2,��
2023/10/21,22:40,0.529,0.802,0.493,1.007,0.723,0.319,0.572,0.532,�k��,6.9,��
2023/10/21,22:50,0.527,0.802,0.491,1.004,0.724,0.320,0.573,0.531,�k��,9.4,��
2023/10/21,23:00,0.528,0.802,0.494,1.005,0.723,0.320,0.571,0.530,�k��,8.6,��
2023/10/21,23:10,0.528,0.803,0.493,1.006,0.724,0.320,0.572,0.532,�k��,8.2,��
2023/10/21,23:20,0.527,0.802,0.493,1.004,0.723,0.321,0.571,0.532,�k��,7.9,��
2023/10/21,23:30,0.526,0.802,0.492,1.005,0.723,0.319,0.570,0.531,�k��,9.2,��
2023/10/21,23:40,0.528,0.800,0.492,1.005,0.721,0.320,0.572,0.533,���k��,8.6,��
2023/10/21,23:50,0.527,0.803,0.494,1.004,0.722,0.320,0.571,0.530,���k��,9.3,��
